When you browse on this site, cookies collect data to enhance your experience and personalize the content and advertising you see.
Visit our Privacy Policy to learn more. By continuing to use the site, you agree to this use of cookies and data.
  • In Hungary
  • List of Countries
  • For 7 days
  • Water Temperature
  • Satellite Maps
  • Weather Map
  • News
  • Weather Widgets
  • user-avatar
    Login

    Hourly Weather Nefta

    Today, 21 April, Sunday

    Time Temperature Precipitation Wind Pressure Humidity
    00:00 +21°C° 0 mm 11 mps 750 mmHg 52%
    01:00 +21°C° 0 mm 11 mps 750 mmHg 52%
    02:00 +19°C° 0 mm 11 mps 749 mmHg 54%
    03:00 +19°C° 0 mm 11 mps 749 mmHg 56%
    04:00 +18°C° 0 mm 11 mps 748 mmHg 58%
    05:00 +18°C° 0 mm 11 mps 748 mmHg 58%
    06:00 +18°C° 0 mm 11 mps 748 mmHg 58%
    07:00 +18°C° 0 mm 10 mps 748 mmHg 58%
    08:00 +22°C° 0 mm 10 mps 748 mmHg 50%
    09:00 +24°C° 0 mm 10 mps 747 mmHg 42%
    10:00 +27°C° 0 mm 9 mps 747 mmHg 35%
    11:00 +31°C° 0 mm 8 mps 747 mmHg 27%
    12:00 +35°C° 0 mm 8 mps 747 mmHg 18%
    13:00 +39°C° 0 mm 7 mps 746 mmHg 10%
    14:00 +40°C° 0 mm 8 mps 746 mmHg 8%
    15:00 +42°C° 0 mm 10 mps 745 mmHg 6%
    16:00 +43°C° 0 mm 12 mps 745 mmHg 4%
    17:00 +40°C° 0 mm 9 mps 744 mmHg 5%
    18:00 +39°C° 0 mm 7 mps 744 mmHg 5%
    19:00 +36°C° 0 mm 4 mps 744 mmHg 5%
    20:00 +35°C° 0 mm 4 mps 744 mmHg 6%
    21:00 +34°C° 0 mm 4 mps 744 mmHg 6%
    22:00 +33°C° 0 mm 5 mps 745 mmHg 7%
    23:00 +32°C° 0 mm 4 mps 745 mmHg 9%

    Tomorrow, 22 April, Monday

    Time Temperature Precipitation Wind Pressure Humidity
    00:00 +29°C° 0 mm 4 mps 745 mmHg 11%
    01:00 +28°C° 0 mm 3 mps 745 mmHg 13%
    02:00 +28°C° 0 mm 4 mps 745 mmHg 16%
    03:00 +27°C° 0 mm 5 mps 745 mmHg 19%
    04:00 +26°C° 0 mm 5 mps 745 mmHg 22%
    05:00 +26°C° 0 mm 6 mps 745 mmHg 25%
    06:00 +24°C° 0 mm 6 mps 746 mmHg 29%
    07:00 +24°C° 0 mm 7 mps 746 mmHg 33%
    08:00 +24°C° 0 mm 8 mps 747 mmHg 32%
    09:00 +26°C° 0 mm 9 mps 747 mmHg 31%
    10:00 +26°C° 0 mm 10 mps 747 mmHg 31%
    11:00 +27°C° 0 mm 10 mps 747 mmHg 29%
    12:00 +28°C° 0 mm 10 mps 748 mmHg 27%
    13:00 +29°C° 0 mm 10 mps 748 mmHg 26%
    14:00 +29°C° 0 mm 10 mps 748 mmHg 24%
    15:00 +31°C° 0 mm 10 mps 747 mmHg 22%
    16:00 +31°C° 0 mm 10 mps 747 mmHg 21%
    17:00 +31°C° 0 mm 9 mps 747 mmHg 20%
    18:00 +31°C° 0 mm 8 mps 748 mmHg 19%
    19:00 +30°C° 0 mm 7 mps 748 mmHg 18%
    20:00 +29°C° 0 mm 6 mps 748 mmHg 19%
    21:00 +28°C° 0 mm 5 mps 749 mmHg 20%
    22:00 +28°C° 0 mm 4 mps 749 mmHg 21%
    23:00 +27°C° 0 mm 4 mps 749 mmHg 24%

    Day after tomorrow, 23 April, Tuesday

    Time Temperature Precipitation Wind Pressure Humidity
    00:00 +26°C° 0 mm 3 mps 749 mmHg 28%
    01:00 +25°C° 0 mm 3 mps 749 mmHg 31%
    02:00 +24°C° 0 mm 2 mps 749 mmHg 33%
    03:00 +24°C° 0 mm 2 mps 749 mmHg 34%
    04:00 +23°C° 0 mm 1 mps 749 mmHg 36%
    05:00 +24°C° 0 mm 1 mps 750 mmHg 35%
    06:00 +24°C° 0 mm 1 mps 750 mmHg 34%
    07:00 +25°C° 0 mm 1 mps 751 mmHg 33%
    08:00 +25°C° 0 mm 2 mps 751 mmHg 31%
    09:00 +26°C° 0 mm 2 mps 751 mmHg 29%
    10:00 +27°C° 0 mm 3 mps 752 mmHg 27%
    11:00 +28°C° 0 mm 3 mps 752 mmHg 25%
    12:00 +29°C° 0 mm 3 mps 751 mmHg 23%
    13:00 +30°C° 0 mm 3 mps 751 mmHg 21%
    14:00 +31°C° 0 mm 3 mps 751 mmHg 20%
    15:00 +31°C° 0 mm 3 mps 751 mmHg 18%
    16:00 +33°C° 0 mm 3 mps 750 mmHg 17%
    17:00 +33°C° 0 mm 3 mps 750 mmHg 17%
    18:00 +31°C° 0 mm 3 mps 751 mmHg 17%
    19:00 +31°C° 0 mm 3 mps 751 mmHg 17%
    20:00 +30°C° 0 mm 3 mps 751 mmHg 18%
    21:00 +29°C° 0 mm 4 mps 752 mmHg 18%
    22:00 +29°C° 0 mm 5 mps 753 mmHg 19%
    23:00 +28°C° 0 mm 4 mps 753 mmHg 19%

    24 April, Wednesday

    Time Temperature Precipitation Wind Pressure Humidity
    00:00 +28°C° 0 mm 4 mps 752 mmHg 20%
    01:00 +27°C° 0 mm 4 mps 752 mmHg 20%
    02:00 +26°C° 0 mm 4 mps 752 mmHg 22%
    03:00 +26°C° 0 mm 5 mps 752 mmHg 24%
    04:00 +25°C° 0 mm 5 mps 752 mmHg 26%
    05:00 +25°C° 0 mm 5 mps 752 mmHg 27%
    06:00 +24°C° 0 mm 6 mps 752 mmHg 28%
    07:00 +24°C° 0 mm 6 mps 752 mmHg 29%
    08:00 +26°C° 0 mm 7 mps 752 mmHg 28%
    09:00 +28°C° 0 mm 9 mps 752 mmHg 27%
    10:00 +29°C° 0 mm 10 mps 752 mmHg 27%
    11:00 +32°C° 0 mm 10 mps 752 mmHg 26%
    12:00 +33°C° 0 mm 9 mps 751 mmHg 24%
    13:00 +35°C° 0 mm 9 mps 751 mmHg 23%
    14:00 +36°C° 0 mm 7 mps 751 mmHg 21%
    15:00 +36°C° 0 mm 5 mps 750 mmHg 19%
    16:00 +37°C° 0 mm 4 mps 750 mmHg 17%
    17:00 +36°C° 0 mm 5 mps 751 mmHg 18%
    18:00 +36°C° 0 mm 5 mps 751 mmHg 20%
    19:00 +35°C° 0 mm 6 mps 752 mmHg 22%
    20:00 +33°C° 0 mm 7 mps 752 mmHg 26%
    21:00 +32°C° 0 mm 8 mps 753 mmHg 29%
    22:00 +29°C° 0 mm 9 mps 754 mmHg 33%
    23:00 +28°C° 0 mm 8 mps 754 mmHg 37%

    25 April, Thursday

    Time Temperature Precipitation Wind Pressure Humidity
    00:00 +27°C° 0 mm 8 mps 754 mmHg 40%
    01:00 +26°C° 0 mm 7 mps 754 mmHg 44%
    02:00 +24°C° 0 mm 7 mps 754 mmHg 47%
    03:00 +24°C° 0 mm 7 mps 754 mmHg 49%
    04:00 +23°C° 0 mm 6 mps 754 mmHg 52%
    05:00 +23°C° 0 mm 6 mps 755 mmHg 53%
    06:00 +22°C° 0 mm 6 mps 755 mmHg 54%
    07:00 +22°C° 0 mm 5 mps 755 mmHg 54%
    08:00 +25°C° 0 mm 5 mps 756 mmHg 48%
    09:00 +26°C° 0 mm 4 mps 756 mmHg 42%
    10:00 +28°C° 0 mm 4 mps 756 mmHg 35%
    11:00 +30°C° 0 mm 3 mps 756 mmHg 31%
    12:00 +31°C° 0 mm 3 mps 756 mmHg 27%
    13:00 +34°C° 0 mm 3 mps 756 mmHg 22%
    14:00 +35°C° 0 mm 3 mps 756 mmHg 21%
    15:00 +35°C° 0 mm 3 mps 755 mmHg 19%
    16:00 +36°C° 0 mm 3 mps 755 mmHg 17%
    17:00 +36°C° 0 mm 4 mps 756 mmHg 19%
    18:00 +35°C° 0 mm 5 mps 756 mmHg 20%
    19:00 +34°C° 0 mm 6 mps 756 mmHg 22%
    20:00 +32°C° 0 mm 6 mps 757 mmHg 30%
    21:00 +29°C° 0 mm 7 mps 758 mmHg 37%
    22:00 +27°C° 0 mm 8 mps 758 mmHg 45%
    23:00 +26°C° 0 mm 7 mps 759 mmHg 45%

    26 April, Friday

    Time Temperature Precipitation Wind Pressure Humidity
    00:00 +26°C° 0 mm 7 mps 759 mmHg 46%
    01:00 +26°C° 0 mm 6 mps 759 mmHg 47%
    02:00 +25°C° 0 mm 5 mps 759 mmHg 49%
    03:00 +23°C° 0 mm 5 mps 759 mmHg 51%
    04:00 +23°C° 0 mm 4 mps 759 mmHg 53%
    05:00 +22°C° 0 mm 5 mps 759 mmHg 54%
    06:00 +22°C° 0 mm 5 mps 759 mmHg 56%
    07:00 +22°C° 0 mm 5 mps 760 mmHg 58%
    08:00 +23°C° 0 mm 5 mps 760 mmHg 52%
    09:00 +26°C° 0 mm 5 mps 760 mmHg 47%
    10:00 +27°C° 0 mm 5 mps 761 mmHg 42%
    11:00 +29°C° 0 mm 5 mps 760 mmHg 37%
    12:00 +30°C° 0 mm 5 mps 760 mmHg 32%
    13:00 +33°C° 0 mm 5 mps 760 mmHg 28%
    14:00 +33°C° 0 mm 5 mps 759 mmHg 26%
    15:00 +34°C° 0 mm 5 mps 759 mmHg 24%
    16:00 +35°C° 0 mm 5 mps 758 mmHg 23%
    17:00 +34°C° 0 mm 6 mps 759 mmHg 24%
    18:00 +33°C° 0 mm 6 mps 759 mmHg 25%
    19:00 +32°C° 0 mm 7 mps 759 mmHg 27%
    20:00 +29°C° 0 mm 7 mps 760 mmHg 30%
    21:00 +28°C° 0 mm 8 mps 761 mmHg 33%
    22:00 +26°C° 0 mm 9 mps 761 mmHg 36%
    23:00 +26°C° 0 mm 8 mps 761 mmHg 37%
    Show more